| time (UTC) | temp C | wind direction | speed KPH | gust KPH | rain 1hr cm | rain 24hr cm | rain mn cm | humidity % | barometer mb |
| 20260506114006 | 7 | 256 | 12.9 | 32.2 | 0.08 | 0.61 | 0.61 | 84 | 1018.6 |
| 20260506113503 | 7 | 265 | 14.5 | 30.6 | 0.10 | 0.61 | 0.61 | 85 | 1018.6 |
| 20260506113004 | 7 | 228 | 16.1 | 30.6 | 0.10 | 0.61 | 0.61 | 85 | 1018.6 |
| 20260506111004 | 7 | 224 | 19.3 | 40.2 | 0.23 | 0.58 | 0.58 | 85 | 1018.8 |
| 20260506110504 | 7 | 202 | 25.7 | 46.7 | 0.46 | 0.58 | 0.58 | 85 | 1018.6 |
| 20260506110006 | 7 | 229 | 25.7 | 56.3 | 0.56 | 0.58 | 0.58 | 85 | 1018.6 |
| 20260506105507 | 7 | 185 | 30.6 | 56.3 | 0.53 | 0.56 | 0.56 | 85 | 1018.5 |
| 20260506105004 | 8 | 257 | 17.7 | 29.0 | 0.48 | 0.53 | 0.53 | 86 | 1018.2 |
| 20260506104509 | 8 | 223 | 12.9 | 27.4 | 0.48 | 0.53 | 0.53 | 86 | 1018.1 |
| 20260506104004 | 8 | 225 | 11.3 | 29.0 | 0.46 | 0.51 | 0.51 | 86 | 1018.0 |
| 20260506103508 | 8 | 255 | 17.7 | 29.0 | 0.46 | 0.48 | 0.48 | 86 | 1018.0 |
| 20260506103018 | 9 | 259 | 16.1 | 27.4 | 0.46 | 0.48 | 0.48 | 85 | 1017.9 |
| 20260506102504 | 8 | 247 | 14.5 | 27.4 | 0.43 | 0.46 | 0.46 | 85 | 1017.8 |
| 20260506101506 | 8 | 235 | 8.0 | 24.1 | 0.41 | 0.43 | 0.43 | 84 | 1017.8 |
| 20260506101008 | 9 | 243 | 12.9 | 25.7 | 0.36 | 0.36 | 0.36 | 82 | 1017.9 |
| 20260506100504 | 10 | 206 | 16.1 | 27.4 | 0.13 | 0.13 | 0.13 | 83 | 1017.8 |
| 20260506100005 | 11 | 313 | 11.3 | 29.0 | 0.03 | 0.03 | 0.03 | 84 | 1016.9 |
| 20260506095504 | 10 | 354 | 11.3 | 29.0 | 0.03 | 0.03 | 0.03 | 84 | 1016.4 |
| 20260506095005 | 10 | 359 | 16.1 | 24.1 | 0.03 | 0.03 | 0.03 | 84 | 1016.4 |
| 20260506094506 | 10 | 341 | 12.9 | 30.6 | 0.03 | 0.03 | 0.03 | 84 | 1016.5 |
| 20260506094003 | 10 | 353 | 16.1 | 30.6 | 0.03 | 0.03 | 0.03 | 83 | 1016.6 |
| 20260506093507 | 10 | 16 | 17.7 | 30.6 | 0.03 | 0.03 | 0.03 | 83 | 1016.7 |
| 20260506093013 | 10 | 351 | 20.9 | 30.6 | 0.03 | 0.03 | 0.03 | 83 | 1016.8 |
| 20260506092507 | 10 | 345 | 17.7 | 29.0 | 0.03 | 0.03 | 0.03 | 83 | 1016.9 |
| 20260506092004 | 11 | 342 | 17.7 | 30.6 | 0.03 | 0.03 | 0.03 | 82 | 1016.8 |
| 20260506091517 | 11 | 340 | 19.3 | 32.2 | 0.00 | 0.00 | 0.00 | 82 | 1016.9 |
| 20260506091004 | 11 | 330 | 20.9 | 35.4 | 0.00 | 0.00 | 0.00 | 81 | 1016.9 |
| 20260506090501 | 11 | 324 | 24.1 | 35.4 | 0.00 | 0.00 | 0.00 | 80 | 1016.9 |
| 20260506090015 | 11 | 343 | 22.5 | 38.6 | 0.00 | 0.00 | 0.00 | 80 | 1016.8 |
| 20260506085505 | 11 | 331 | 20.9 | 38.6 | 0.00 | 0.00 | 0.00 | 78 | 1016.6 |
| 20260506085008 | 11 | 1 | 22.5 | 38.6 | 0.00 | 0.00 | 0.00 | 76 | 1016.5 |
| 20260506084511 | 11 | 357 | 25.7 | 38.6 | 0.00 | 0.00 | 0.00 | 75 | 1016.3 |
| 20260506084005 | 11 | 22 | 25.7 | 37.0 | 0.00 | 0.00 | 0.00 | 75 | 1016.1 |
| 20260506083507 | 11 | 331 | 17.7 | 40.2 | 0.00 | 0.00 | 0.00 | 74 | 1016.1 |
| 20260506083009 | 11 | 12 | 22.5 | 40.2 | 0.00 | 0.00 | 0.00 | 74 | 1016.1 |
| 20260506082506 | 11 | 324 | 17.7 | 32.2 | 0.00 | 0.00 | 0.00 | 74 | 1016.1 |
| 20260506082012 | 11 | 13 | 16.1 | 33.8 | 0.00 | 0.00 | 0.00 | 74 | 1016.1 |
| 20260506081509 | 11 | 25 | 17.7 | 33.8 | 0.00 | 0.00 | 0.00 | 74 | 1016.0 |
| 20260506081011 | 11 | 356 | 14.5 | 37.0 | 0.00 | 0.00 | 0.00 | 74 | 1016.0 |
| 20260506080507 | 11 | 357 | 16.1 | 37.0 | 0.00 | 0.00 | 0.00 | 74 | 1016.0 |
| 20260506073009 | 12 | 355 | 12.9 | 27.4 | 0.00 | 0.00 | 0.00 | 74 | 1015.9 |
| 20260506072003 | 12 | 345 | 14.5 | 27.4 | 0.00 | 0.00 | 0.00 | 73 | 1016.0 |
| 20260506071519 | 12 | 311 | 12.9 | 29.0 | 0.00 | 0.00 | 0.00 | 73 | 1016.1 |
| 20260506071006 | 12 | 343 | 17.7 | 29.0 | 0.00 | 0.00 | 0.00 | 72 | 1016.1 |
| 20260506070507 | 12 | 359 | 12.9 | 33.8 | 0.00 | 0.00 | 0.00 | 72 | 1016.1 |
| 20260506062510 | 12 | 6 | 9.7 | 30.6 | 0.00 | 0.00 | 0.00 | 72 | 1016.7 |
| 20260506062011 | 12 | 10 | 14.5 | 30.6 | 0.00 | 0.00 | 0.00 | 71 | 1016.7 |
| 20260506061007 | 13 | 360 | 16.1 | 33.8 | 0.00 | 0.00 | 0.00 | 68 | 1016.7 |
| 20260506060504 | 13 | 333 | 19.3 | 33.8 | 0.00 | 0.00 | 0.00 | 68 | 1016.8 |
| 20260506051003 | 13 | 10 | 16.1 | 30.6 | 0.00 | 0.00 | 0.00 | 69 | 1017.9 |
| 20260506050503 | 13 | 360 | 16.1 | 38.6 | 0.00 | 0.00 | 0.00 | 66 | 1017.8 |
| 20260506045005 | 13 | 337 | 22.5 | 37.0 | 0.00 | 0.00 | 0.00 | 63 | 1017.9 |
| 20260506044519 | 14 | 349 | 22.5 | 37.0 | 0.00 | 0.00 | 0.00 | 63 | 1017.8 |
| 20260506044006 | 14 | 324 | 25.7 | 35.4 | 0.00 | 0.00 | 0.00 | 62 | 1017.8 |
| 20260506043503 | 14 | 327 | 24.1 | 35.4 | 0.00 | 0.00 | 0.00 | 61 | 1017.9 |
| 20260506043004 | 14 | 343 | 17.7 | 38.6 | 0.00 | 0.00 | 0.00 | 61 | 1018.0 |
| 20260506042504 | 14 | 333 | 27.4 | 37.0 | 0.00 | 0.00 | 0.00 | 62 | 1017.9 |
| 20260506042004 | 14 | 309 | 19.3 | 38.6 | 0.00 | 0.00 | 0.00 | 62 | 1018.0 |
| 20260506041505 | 14 | 320 | 22.5 | 38.6 | 0.00 | 0.00 | 0.00 | 63 | 1018.1 |
| 20260506041004 | 13 | 352 | 22.5 | 37.0 | 0.00 | 0.00 | 0.00 | 64 | 1018.0 |
| 20260506040504 | 14 | 332 | 22.5 | 33.8 | 0.00 | 0.00 | 0.00 | 63 | 1018.1 |
| 20260506040008 | 13 | 337 | 22.5 | 33.8 | 0.00 | 0.00 | 0.00 | 63 | 1018.1 |
| 20260506035503 | 13 | 311 | 22.5 | 38.6 | 0.00 | 0.00 | 0.00 | 62 | 1018.1 |
| 20260506035004 | 13 | 327 | 22.5 | 38.6 | 0.00 | 0.00 | 0.00 | 63 | 1018.2 |
| 20260506034506 | 13 | 328 | 24.1 | 37.0 | 0.00 | 0.00 | 0.00 | 63 | 1018.3 |
| 20260506033505 | 13 | 340 | 19.3 | 30.6 | 0.00 | 0.00 | 0.00 | 64 | 1018.5 |
| 20260506033006 | 13 | 324 | 16.1 | 24.1 | 0.00 | 0.00 | 0.00 | 64 | 1018.6 |
| 20260506032506 | 13 | 328 | 14.5 | 30.6 | 0.00 | 0.00 | 0.00 | 65 | 1018.8 |
| 20260506032011 | 13 | 303 | 16.1 | 30.6 | 0.00 | 0.00 | 0.00 | 65 | 1019.0 |
| 20260506031505 | 13 | 316 | 14.5 | 29.0 | 0.00 | 0.00 | 0.00 | 66 | 1019.1 |
| 20260506031005 | 13 | 318 | 17.7 | 30.6 | 0.00 | 0.00 | 0.00 | 65 | 1019.2 |
| 20260506030503 | 12 | 314 | 19.3 | 30.6 | 0.00 | 0.00 | 0.00 | 64 | 1019.2 |
| 20260506030006 | 12 | 314 | 19.3 | 25.7 | 0.00 | 0.00 | 0.00 | 65 | 1019.2 |
| 20260506025506 | 12 | 298 | 19.3 | 29.0 | 0.00 | 0.00 | 0.00 | 65 | 1019.1 |
| 20260506025004 | 13 | 297 | 14.5 | 29.0 | 0.00 | 0.00 | 0.00 | 66 | 1019.2 |
| 20260506024510 | 13 | 315 | 16.1 | 29.0 | 0.00 | 0.00 | 0.00 | 65 | 1019.3 |
| 20260506024010 | 13 | 318 | 14.5 | 29.0 | 0.00 | 0.00 | 0.00 | 65 | 1019.4 |
| 20260506023014 | 13 | 327 | 16.1 | 27.4 | 0.00 | 0.00 | 0.00 | 65 | 1019.6 |
| 20260506022505 | 13 | 308 | 17.7 | 27.4 | 0.00 | 0.00 | 0.00 | 65 | 1019.6 |
| 20260506022006 | 13 | 301 | 22.5 | 27.4 | 0.00 | 0.00 | 0.00 | 64 | 1019.8 |
| 20260506021511 | 13 | 314 | 17.7 | 27.4 | 0.00 | 0.00 | 0.00 | 66 | 1019.8 |
| 20260506021004 | 12 | 312 | 14.5 | 24.1 | 0.00 | 0.00 | 0.00 | 67 | 1019.9 |
| 20260506020507 | 12 | 311 | 14.5 | 20.9 | 0.00 | 0.00 | 0.00 | 68 | 1020.2 |
| 20260506015505 | 12 | 316 | 16.1 | 20.9 | 0.00 | 0.00 | 0.00 | 71 | 1020.3 |
| 20260506015005 | 12 | 325 | 12.9 | 22.5 | 0.00 | 0.00 | 0.00 | 72 | 1020.2 |
| 20260506014508 | 12 | 326 | 12.9 | 25.7 | 0.00 | 0.00 | 0.00 | 71 | 1020.2 |
| 20260506014004 | 12 | 339 | 14.5 | 25.7 | 0.00 | 0.00 | 0.00 | 71 | 1020.4 |
| 20260506013504 | 12 | 334 | 12.9 | 25.7 | 0.00 | 0.00 | 0.00 | 71 | 1020.4 |
| 20260506012504 | 12 | 349 | 11.3 | 25.7 | 0.00 | 0.00 | 0.00 | 71 | 1020.5 |
| 20260506012009 | 12 | 5 | 14.5 | 25.7 | 0.00 | 0.00 | 0.00 | 70 | 1020.6 |
| 20260506011520 | 12 | 345 | 14.5 | 25.7 | 0.00 | 0.00 | 0.00 | 70 | 1020.7 |
| 20260506011010 | 12 | 13 | 14.5 | 25.7 | 0.00 | 0.00 | 0.00 | 70 | 1020.7 |
| 20260506010022 | 12 | 326 | 14.5 | 27.4 | 0.00 | 0.00 | 0.00 | 70 | 1020.9 |
| 20260506005511 | 12 | 20 | 12.9 | 24.1 | 0.00 | 0.00 | 0.00 | 68 | 1020.9 |
| 20260506005003 | 12 | 355 | 14.5 | 24.1 | 0.00 | 0.00 | 0.00 | 69 | 1020.8 |
| 20260506004524 | 12 | 345 | 11.3 | 24.1 | 0.00 | 0.00 | 0.00 | 69 | 1020.9 |
| 20260506004005 | 12 | 335 | 14.5 | 24.1 | 0.00 | 0.00 | 0.00 | 68 | 1020.9 |
| 20260506003504 | 12 | 33 | 9.7 | 22.5 | 0.00 | 0.00 | 0.00 | 68 | 1021.0 |
| 20260506003009 | 12 | 359 | 12.9 | 22.5 | 0.00 | 0.00 | 0.00 | 68 | 1021.1 |
| 20260506002507 | 12 | 355 | 8.0 | 19.3 | 0.00 | 0.00 | 0.00 | 69 | 1021.2 |
| 20260506002006 | 12 | 331 | 9.7 | 22.5 | 0.00 | 0.00 | 0.00 | 68 | 1021.2 |
| 20260506001511 | 12 | 341 | 11.3 | 22.5 | 0.00 | 0.00 | 0.00 | 69 | 1021.2 |
| 20260506000507 | 12 | 337 | 11.3 | 22.5 | 0.00 | 0.00 | 0.00 | 68 | 1021.3 |
| 20260506000010 | 12 | 11 | 12.9 | 22.5 | 0.00 | 0.00 | 0.00 | 68 | 1021.3 |
| 20260505235511 | 12 | 345 | 11.3 | 20.9 | 0.00 | 0.00 | 0.00 | 69 | 1021.3 |
| 20260505235008 | 12 | 1 | 9.7 | 20.9 | 0.00 | 0.00 | 0.00 | 70 | 1021.4 |
| 20260505234512 | 11 | 16 | 12.9 | 20.9 | 0.00 | 0.00 | 0.00 | 70 | 1021.3 |
| 20260505234008 | 11 | 2 | 9.7 | 20.9 | 0.00 | 0.00 | 0.00 | 70 | 1021.4 |
| 20260505233027 | 11 | 340 | 9.7 | 17.7 | 0.00 | 0.00 | 0.00 | 70 | 1021.5 |
| 20260505232004 | 11 | 343 | 12.9 | 22.5 | 0.00 | 0.00 | 0.00 | 71 | 1021.6 |
| 20260505231513 | 11 | 15 | 11.3 | 17.7 | 0.00 | 0.00 | 0.00 | 71 | 1021.6 |
| 20260505231006 | 11 | 8 | 9.7 | 17.7 | 0.00 | 0.00 | 0.00 | 71 | 1021.6 |
| 20260505230506 | 11 | 349 | 9.7 | 17.7 | 0.00 | 0.00 | 0.00 | 71 | 1021.5 |
| 20260505230029 | 11 | 341 | 9.7 | 16.1 | 0.00 | 0.00 | 0.00 | 71 | 1021.7 |
| 20260505225508 | 11 | 2 | 9.7 | 16.1 | 0.00 | 0.00 | 0.00 | 71 | 1021.7 |
| 20260505225012 | 11 | 341 | 11.3 | 16.1 | 0.00 | 0.00 | 0.00 | 71 | 1021.6 |
| 20260505224518 | 11 | 337 | 8.0 | 16.1 | 0.00 | 0.00 | 0.00 | 71 | 1021.7 |
| 20260505224008 | 11 | 349 | 9.7 | 16.1 | 0.00 | 0.00 | 0.00 | 71 | 1021.6 |
| 20260505223511 | 11 | 330 | 9.7 | 16.1 | 0.00 | 0.00 | 0.00 | 71 | 1021.6 |
| 20260505223021 | 11 | 339 | 6.4 | 12.9 | 0.00 | 0.00 | 0.00 | 72 | 1021.5 |
| 20260505222511 | 11 | 337 | 8.0 | 12.9 | 0.00 | 0.00 | 0.00 | 71 | 1021.5 |
| 20260505222015 | 11 | 4 | 6.4 | 14.5 | 0.00 | 0.00 | 0.00 | 71 | 1021.5 |
| 20260505221519 | 11 | 16 | 6.4 | 14.5 | 0.00 | 0.00 | 0.00 | 71 | 1021.5 |
| 20260505221012 | 11 | 344 | 6.4 | 12.9 | 0.00 | 0.00 | 0.00 | 71 | 1021.5 |
| 20260505220506 | 11 | 8 | 6.4 | 12.9 | 0.00 | 0.00 | 0.00 | 71 | 1021.5 |
| 20260505220013 | 11 | 10 | 4.8 | 14.5 | 0.00 | 0.00 | 0.00 | 71 | 1021.6 |
| 20260505215508 | 10 | 23 | 8.0 | 14.5 | 0.00 | 0.00 | 0.00 | 71 | 1021.6 |
| 20260505215007 | 10 | 339 | 6.4 | 14.5 | 0.00 | 0.00 | 0.00 | 71 | 1021.6 |
| 20260505214504 | 10 | 330 | 8.0 | 14.5 | 0.00 | 0.00 | 0.00 | 72 | 1021.6 |
| 20260505214003 | 10 | 14 | 3.2 | 9.7 | 0.00 | 0.00 | 0.00 | 72 | 1021.7 |
| 20260505213503 | 10 | 358 | 1.6 | 11.3 | 0.00 | 0.00 | 0.00 | 72 | 1021.7 |
| 20260505213004 | 10 | 16 | 3.2 | 11.3 | 0.00 | 0.00 | 0.00 | 72 | 1021.7 |
| 20260505212503 | 10 | 14 | 4.8 | 11.3 | 0.00 | 0.00 | 0.00 | 72 | 1021.7 |
| 20260505212003 | 10 | 358 | 0.0 | 11.3 | 0.00 | 0.00 | 0.00 | 72 | 1021.5 |
| 20260505211504 | 10 | 341 | 4.8 | 11.3 | 0.00 | 0.00 | 0.00 | 72 | 1021.7 |
| 20260505211003 | 10 | 4 | 3.2 | 8.0 | 0.00 | 0.00 | 0.00 | 73 | 1021.8 |
| 20260505210507 | 10 | 14 | 3.2 | 11.3 | 0.00 | 0.00 | 0.00 | 73 | 1021.8 |
| 20260505210004 | 10 | 360 | 4.8 | 11.3 | 0.00 | 0.00 | 0.00 | 73 | 1021.6 |
| 20260505205513 | 10 | 13 | 3.2 | 9.7 | 0.00 | 0.00 | 0.00 | 73 | 1021.6 |
| 20260505205006 | 10 | 358 | 6.4 | 9.7 | 0.00 | 0.00 | 0.00 | 73 | 1021.7 |
| 20260505204506 | 10 | 337 | 6.4 | 9.7 | 0.00 | 0.00 | 0.00 | 73 | 1021.8 |
| 20260505204006 | 10 | 359 | 4.8 | 11.3 | 0.00 | 0.00 | 0.00 | 73 | 1021.7 |
| 20260505203503 | 10 | 10 | 4.8 | 11.3 | 0.00 | 0.00 | 0.00 | 73 | 1021.7 |
| 20260505203013 | 10 | 4 | 4.8 | 9.7 | 0.00 | 0.00 | 0.00 | 73 | 1021.8 |
| 20260505202503 | 10 | 4 | 3.2 | 9.7 | 0.00 | 0.00 | 0.00 | 73 | 1021.7 |
| 20260505202004 | 10 | 8 | 3.2 | 8.0 | 0.00 | 0.00 | 0.00 | 73 | 1021.7 |
| 20260505201506 | 10 | 10 | 3.2 | 11.3 | 0.00 | 0.00 | 0.00 | 73 | 1021.7 |
| 20260505201004 | 10 | 339 | 4.8 | 11.3 | 0.00 | 0.00 | 0.00 | 74 | 1021.5 |
| 20260505200504 | 10 | 341 | 3.2 | 8.0 | 0.00 | 0.00 | 0.00 | 74 | 1021.5 |
| 20260505200009 | 10 | 349 | 3.2 | 9.7 | 0.00 | 0.00 | 0.00 | 73 | 1021.5 |
| 20260505195504 | 10 | 348 | 3.2 | 9.7 | 0.00 | 0.00 | 0.00 | 73 | 1021.5 |
| 20260505195007 | 10 | 10 | 4.8 | 9.7 | 0.00 | 0.00 | 0.00 | 73 | 1021.4 |
| 20260505194514 | 10 | 15 | 1.6 | 9.7 | 0.00 | 0.00 | 0.00 | 74 | 1021.4 |
| 20260505194004 | 10 | 14 | 1.6 | 6.4 | 0.00 | 0.00 | 0.00 | 74 | 1021.4 |
| 20260505193512 | 10 | 17 | 0.0 | 9.7 | 0.00 | 0.00 | 0.00 | 74 | 1021.4 |
| 20260505193011 | 10 | 16 | 4.8 | 9.7 | 0.00 | 0.00 | 0.00 | 74 | 1021.4 |
| 20260505192503 | 10 | 4 | 1.6 | 6.4 | 0.00 | 0.00 | 0.00 | 74 | 1021.4 |
| 20260505192008 | 10 | 4 | 3.2 | 6.4 | 0.00 | 0.00 | 0.00 | 74 | 1021.5 |
| 20260505191513 | 10 | 360 | 1.6 | 6.4 | 0.00 | 0.00 | 0.00 | 73 | 1021.5 |
| 20260505191009 | 10 | 2 | 1.6 | 6.4 | 0.00 | 0.00 | 0.00 | 74 | 1021.6 |
| 20260505190504 | 10 | 352 | 0.0 | 4.8 | 0.00 | 0.00 | 0.00 | 73 | 1021.5 |
| 20260505190005 | 10 | 353 | 1.6 | 4.8 | 0.00 | 0.00 | 0.00 | 73 | 1021.6 |
| 20260505185504 | 11 | 353 | 1.6 | 4.8 | 0.00 | 0.00 | 0.00 | 72 | 1021.6 |
| 20260505185005 | 11 | 353 | 1.6 | 4.8 | 0.00 | 0.00 | 0.00 | 72 | 1021.5 |
| 20260505184006 | 11 | 352 | 1.6 | 11.3 | 0.00 | 0.00 | 0.00 | 71 | 1021.5 |
| 20260505183507 | 11 | 4 | 1.6 | 11.3 | 0.00 | 0.00 | 0.00 | 72 | 1021.5 |
| 20260505183014 | 11 | 333 | 1.6 | 6.4 | 0.00 | 0.00 | 0.00 | 72 | 1021.5 |
| 20260505182504 | 11 | 21 | 0.0 | 4.8 | 0.00 | 0.00 | 0.00 | 72 | 1021.5 |
| 20260505182006 | 11 | 14 | 1.6 | 4.8 | 0.00 | 0.00 | 0.00 | 72 | 1021.6 |
| 20260505181518 | 11 | 360 | 0.0 | 4.8 | 0.00 | 0.00 | 0.00 | 72 | 1021.6 |
| 20260505180510 | 11 | 360 | 1.6 | 6.4 | 0.00 | 0.00 | 0.00 | 72 | 1021.6 |
| 20260505180019 | 11 | 17 | 0.0 | 6.4 | 0.00 | 0.00 | 0.00 | 72 | 1021.6 |
| 20260505175504 | 11 | 14 | 0.0 | 4.8 | 0.00 | 0.00 | 0.00 | 72 | 1021.6 |
| 20260505175004 | 11 | 358 | 0.0 | 1.6 | 0.00 | 0.00 | 0.00 | 72 | 1021.6 |
| 20260505174505 | 11 | 354 | 0.0 | 8.0 | 0.00 | 0.00 | 0.00 | 71 | 1021.7 |
| 20260505173505 | 11 | 354 | 1.6 | 4.8 | 0.00 | 0.00 | 0.00 | 71 | 1021.7 |
| 20260505173010 | 11 | 353 | 1.6 | 4.8 | 0.00 | 0.00 | 0.00 | 72 | 1021.8 |
| 20260505172507 | 11 | 353 | 1.6 | 8.0 | 0.00 | 0.00 | 0.00 | 72 | 1021.8 |
| 20260505172008 | 11 | 351 | 1.6 | 8.0 | 0.00 | 0.00 | 0.00 | 72 | 1021.9 |
| 20260505171008 | 10 | 359 | 1.6 | 8.0 | 0.00 | 0.00 | 0.00 | 73 | 1021.9 |
| 20260505170509 | 10 | 339 | 1.6 | 6.4 | 0.00 | 0.00 | 0.00 | 73 | 1021.9 |
| 20260505170006 | 11 | 335 | 0.0 | 4.8 | 0.00 | 0.00 | 0.00 | 72 | 1022.0 |
| 20260505165510 | 11 | 314 | 1.6 | 6.4 | 0.00 | 0.00 | 0.00 | 72 | 1022.0 |
| 20260505165005 | 11 | 319 | 3.2 | 11.3 | 0.00 | 0.00 | 0.00 | 72 | 1022.0 |
| 20260505164524 | 11 | 334 | 3.2 | 11.3 | 0.00 | 0.00 | 0.00 | 71 | 1022.1 |
| 20260505164007 | 11 | 3 | 4.8 | 11.3 | 0.00 | 0.00 | 0.00 | 72 | 1022.1 |
| 20260505163503 | 11 | 345 | 4.8 | 11.3 | 0.00 | 0.00 | 0.00 | 71 | 1022.1 |
| 20260505162506 | 10 | 2 | 6.4 | 12.9 | 0.00 | 0.00 | 0.00 | 73 | 1022.2 |
| 20260505162007 | 10 | 8 | 3.2 | 8.0 | 0.00 | 0.00 | 0.00 | 73 | 1022.3 |
| 20260505161513 | 10 | 8 | 3.2 | 8.0 | 0.00 | 0.00 | 0.00 | 72 | 1022.4 |
| 20260505161008 | 10 | 4 | 3.2 | 8.0 | 0.00 | 0.00 | 0.00 | 72 | 1022.3 |
| 20260505160511 | 10 | 17 | 3.2 | 9.7 | 0.00 | 0.00 | 0.00 | 72 | 1022.4 |
| 20260505153028 | 10 | 2 | 3.2 | 8.0 | 0.00 | 0.00 | 0.00 | 73 | 1022.7 |
| 20260505152511 | 10 | 22 | 4.8 | 8.0 | 0.00 | 0.00 | 0.00 | 73 | 1022.7 |
| 20260505152012 | 10 | 335 | 0.0 | 9.7 | 0.00 | 0.00 | 0.00 | 73 | 1022.8 |
| 20260505151006 | 10 | 358 | 6.4 | 11.3 | 0.00 | 0.00 | 0.00 | 72 | 1022.8 |
| 20260505150509 | 11 | 7 | 3.2 | 9.7 | 0.00 | 0.00 | 0.00 | 72 | 1022.8 |
| 20260505140511 | 11 | 20 | 0.0 | 4.8 | 0.00 | 0.00 | 0.00 | 69 | 1022.8 |
| 20260505125008 | 11 | 17 | 3.2 | 6.4 | 0.00 | 0.00 | 0.00 | 69 | 1023.2 |
| 20260505124502 | 11 | 35 | 0.0 | 4.8 | 0.00 | 0.00 | 0.00 | 69 | 1023.2 |
| 20260505124006 | 11 | 42 | 1.6 | 3.2 | 0.00 | 0.00 | 0.00 | 69 | 1023.3 |
| 20260505123506 | 11 | 42 | 0.0 | 4.8 | 0.00 | 0.00 | 0.00 | 69 | 1023.4 |
| 20260505123003 | 11 | 42 | 0.0 | 4.8 | 0.00 | 0.00 | 0.00 | 69 | 1023.5 |
| 20260505122504 | 11 | 24 | 1.6 | 4.8 | 0.00 | 0.00 | 0.00 | 69 | 1023.6 |
| 20260505122004 | 11 | 25 | 0.0 | 4.8 | 0.00 | 0.00 | 0.00 | 69 | 1023.6 |
| 20260505121506 | 11 | 41 | 0.0 | 6.4 | 0.00 | 0.00 | 0.00 | 70 | 1023.6 |
| 20260505121005 | 11 | 41 | 0.0 | 6.4 | 0.00 | 0.00 | 0.00 | 70 | 1023.6 |
| 20260505120508 | 11 | 41 | 1.6 | 4.8 | 0.00 | 0.00 | 0.00 | 70 | 1023.7 |
| 20260505115502 | 11 | 50 | 0.0 | 4.8 | 0.00 | 0.00 | 0.00 | 70 | 1023.7 |
| 20260505114505 | 11 | 27 | 0.0 | 0.0 | 0.00 | 0.00 | 0.00 | 70 | 1023.7 |